AirNav   TITAN Aviation Fuels
 
 843 users online  

L65 Perris Valley Airport
Perris, California, USA

GOING TO PERRIS?


FAA INFORMATION EFFECTIVE 16 JUNE 2022

Location

FAA Identifier: L65
Lat/Long: 33-45-52.7000N 117-13-08.4000W
33-45.878333N 117-13.140000W
33.7646389,-117.2190000
(estimated)
Elevation: 1413 ft. / 431 m (estimated)
Variation: 14E (1985)
From city: 1 mile SE of PERRIS, CA
Time zone: UTC -7 (UTC -8 during Standard Time)
Zip code: 92570

Airport Operations

Airport use: Open to the public
Activation date: 10/1962
Control tower: no
ARTCC: LOS ANGELES CENTER
FSS: RIVERSIDE FLIGHT SERVICE STATION
NOTAMs facility: RAL (NOTAM-D service available)
Attendance: DAWN-DUSK
Wind indicator: yes
Segmented circle: yes

Airport Communications

CTAF: 122.775
WX AWOS-3PT at HMT (10 nm E): 118.375 (951-925-6886)
WX AWOS-3 at F70 (12 nm S): 119.025 (951-696-1018)
WX ASOS at RAL (16 nm NW): 128.8 (951-352-4392)
WX AWOS-3 at SBD (20 nm N): PHONE 909-382-0067

Airport Services

Fuel available: 100LL JET-A
FUEL AVBL FOR EMERG USE ONLY.
Parking: tiedowns
Airframe service: MAJOR
Powerplant service: MAJOR
Bottled oxygen: NONE
Bulk oxygen: NONE

Runway Information

Runway 15/33

Dimensions: 5100 x 50 ft. / 1554 x 15 m
Surface: asphalt, in good condition
RUNWAY 15  RUNWAY 33
Latitude: 33-46.286167N33-45.470333N
Longitude: 117-13.262333W117-13.018667W
Elevation: 1413.0 ft.
Traffic pattern: rightleft
Displaced threshold: 1900 ft.144 ft.
Markings: basic, in good conditionbasic, in good condition
Obstructions: 30 ft. trees, 150 ft. from runway, 5:1 slope to clear
APCH RATIO TO DSPLCD THR 20:1.
none
APCH RATIO TO DSPLCD THLD 20:1.

Airport Ownership and Management from official FAA records

Ownership: Privately-owned
Owner: B & D CONATSER
2091 GOETZ ROAD
PERRIS, CA 92570
Phone 951-657-3904
Manager: PAT CONATSER
P.O. BOX 1823
PERRIS, CA 92370
Phone 951-657-1664
MAIN OFFICE TO LEAVE MSGS W/SECY - (951) 657-3904 FAX: (951) 657-6178. EMAIL: PERRISAIR@AOL.COM

Airport Operational Statistics

Aircraft based on the field: 57
Single engine airplanes: 10
Multi engine airplanes: 11
Jet airplanes: 1
Ultralights: 35
    
Aircraft operations: avg 53/day *
91% local general aviation
9% transient general aviation
<1% military
* for 12-month period ending 31 December 2020

Additional Remarks

EXTSV ULTRALIGHT & PARACHUTING ACTIVITIES DAILY; DO NOT OVERFLY AIRPORT; AVOID AIRSPACE ADJ EAST. ULTRALIGHTS ON & INVOF ARPT. ULTRALIGHT AND PARACHUTING ACTIVITIES CAN BE MONITORED ON FREQ 122.775.
FOR CD CTC SOCAL APCH AT 800-448-3724.

Instrument Procedures

There are no published instrument procedures at L65.

Some nearby airports with instrument procedures:

KRIV - March Air Reserve Base (7 nm N)
KHMT - Hemet-Ryan Airport (10 nm E)
F70 - French Valley Airport (12 nm S)
KRAL - Riverside Municipal Airport (16 nm NW)
KRIR - Flabob Airport (16 nm NW)
KREI - Redlands Municipal Airport (20 nm N)
KSBD - San Bernardino International Airport (20 nm N)
 
Loc | Ops | Rwys | IFR | FBO | Links
Com | Nav | Svcs | Stats | Notes

Luxivair - San Bernardino International Airport
 
Area around L65 (Perris Valley Airport)
 
Road maps at: MapQuest Bing Google
 
Aerial photo
WARNING: Photo may not be current or correct
Aerial photo of L65 (Perris Valley Airport)
Photo by Fred Emmert AirViews.com
Photo taken 26-Jan-2015
looking southeast.

Do you have a better or more recent aerial photo of Perris Valley Airport that you would like to share? If so, please send us your photo.

 
Sectional chart

 
Airport distance calculator
Flying to Perris Valley Airport? Find the distance to fly.

From to L65

Sunrise and sunset
Times for 27-Jun-2022
 Local
(UTC-7)
 Zulu
(UTC)
Morning civil twilight05:1212:12
Sunrise05:4112:41
Sunset20:0203:02
Evening civil twilight20:3203:32

Current date and time
Zulu (UTC)  27-Jun-2022 12:11:26
Local (UTC-7)  27-Jun-2022 05:11:26
 
METAR
KRIV 
7nm N 
271158Z AUTO 00000KT 10SM CLR 22/09 A3003 RMK AO2 SLP152 T02150087 10244 20211 58002
KHMT 
10nm E 
271155Z AUTO 00000KT 10SM CLR 20/05 A3004 RMK AO2 T01970050 10225 20177
KF70 
12nm S 
271155Z AUTO 00000KT 10SM CLR 20/06 A3004 RMK AO2
KRAL 
16nm NW 
271153Z AUTO 00000KT 10SM CLR 21/13 A3001 RMK AO2 SLP144 T02060128 10244 20206 56005
TAF
KRIV 
7nm N 
270400Z 2704/2810 31006KT 9999 FEW120 QNH2999INS BECMG 2706/2707 15006KT 9999 FEW120 QNH3001INS BECMG 2719/2720 32009KT 9999 SCT120 510005 QNH2993INS TS OMTNS NE AND SE TEMPO 2721/2802 32012G20KT BECMG 2802/2803 31006KT 9999 FEW120 QNH2997INS BECMG 2805/2806 16004KT 9999 SKC QNH2998INS TX39/2722Z TN16/2713Z
NOTAMs
Click for the latest NOTAMs
NOTAMs are issued by the DoD/FAA and will open in a separate window not controlled by AirNav.

 

 
 

Would you like to see your business listed on this page?

 If your business provides an interesting product or service to pilots, flight crews, aircraft, or users of the Perris Valley Airport, you should consider listing it here.  To start the listing process, click on the button below
 
Add a business
 

Other Pages about Perris Valley Airport

Update a link
 
Copyright © AirNav, LLC. All rights reserved. Privacy Policy  Contact